Retour au catalogue

STARLINK-3768

ActifCommunicationsVLEO
NORAD 52301·PAYLOAD·🇺🇸 United States

Lancé Apr 21, 2022 depuis Cape Canaveral Space Force Station

Loading…

Prochains Passages (prochaines 24 heures)

TLE

FraisSource: CelesTrak SupGP

Époque: Sep 14, 2026, 21:02 UTC

1 52301C 22041AS  26257.87687500 -.00026636  00000+0 -80852-3 0  2570
2 52301  53.1584 318.2687 0001249  75.3124 243.0257 15.33551763    15

Suivez STARLINK-3768 en temps réel avec AllMySat

Download on the App Store